World > North America > United States > Georgia

Uvalda, Georgia Regional Weather

Lat: 32.04N, Lon: 82.51W
Wx Zone: GAZ112Web Search

Ads allow us to feed your daily addiction for the world's greatest weather information. We're determined to offer quality sponsors, in the least annoying way possible.

Feedback


°F Click to change Uvalda hourly weather to Imperial units.Click to change Uvalda hourly weather to Metric units. °C
Uvalda Weather Map
UTC Time: 6/16/2021, 17:32
Your Time:

Uvalda, GA Regional Weather

Expires:202106161800;;363480
ASUS42 KFFC 161710
RWRGA 
WEATHER ROUNDUP FOR GEORGIA
NATIONAL WEATHER SERVICE PEACHTREE CITY GA
100 PM EDT WED JUN 16 2021

NOTE: "FAIR" INDICATES FEW OR NO CLOUDS BELOW 12,000 FEET WITH NO
SIGNIFICANT WEATHER AND/OR OBSTRUCTIONS TO VISIBILITY. 

* = USE WITH CAUTION. THE STATIONS MARKED WITH AN ASTERISK MAY NOT
REPORT WEATHER SUCH AS PRECIPITATION, FOG, OR THUNDER AND ARE NOT 
QUALITY CONTROLLED BY NWS.

THE REMARK "TC" DENOTES TEMPERATURE READING IN DEGREES CELSIUS.


GAZ099>101-110>166-161800-
SOUTH GEORGIA
  
CITY           SKY/WX    TMP DP  RH WIND       PRES   REMARKS
SAVANNAH       MOSUNNY   89  60  37 W10       29.93S                  
VALDOSTA       PTSUNNY   88  68  51 S8        29.97S HX  91           
ALMA           SUNNY     88  60  38 SW8       29.94F                  
ST SIMONS      MOSUNNY   90  66  45 SW10      29.93F HX  92           
FT STEWART     PTSUNNY   89  63  40 W9        29.90F HX  90           
ALBANY         SUNNY     92  53  26 VRB6G17   29.96S                  
HUNTER AFB     PTSUNNY   91  62  37 W5        29.90F HX  91           
MOODY AFB      PTSUNNY   91  60  35 SW9       29.95F HX  91           
BRUNSWICK      MOSUNNY   89  63  41 SW9       29.93F HX  90           

  
CITY           SKY/WX    TMP DP  RH WIND       PRES   REMARKS
BAINBRIDGE*    CLOUDY    87  60  40 N6        29.99S                  
MOULTRIE*      SUNNY     88  59  37 CALM      29.98F                  
VIDALIA*       SUNNY     86  59  39 W8        29.96S                  
WAYCROSS*      SUNNY     90  62  39 SW10      29.94F HX  90           
DOUGLAS*       SUNNY     87  59  39 W7        29.97F                  
$$
  

SKY/WX - Weather  TMP - Temperature  DP - Dew Point  RH - Relative Humidity
WIND - Wind Direction/Speed PRES - Barometric Pressure VSB - Visibility
WCI - Wind Chill Index E13G22 Wind - East Wind 13 mph/Gusts of 22 mph